Time,TemperatureF,DewpointF,PressureIn,WindDirection,WindDirectionDegrees,WindSpeedMPH,WindSpeedGustMPH,Humidity,HourlyPrecipIn,Conditions,Clouds,dailyrainin,SolarRadiationWatts/m^2,SoftwareType,DateUTC
2013-05-08 00:01:00,58.7,41.1,30.04,SSW,200,0.0,0.0,52,0.00,,,0.00,0,Wunderground v.1.15,2013-05-08 04:01:00,
2013-05-08 00:02:00,58.6,41.0,30.04,SSW,200,0.0,0.0,52,0.00,,,0.00,0,Wunderground v.1.15,2013-05-08 04:02:00,
2013-05-08 00:03:00,58.6,41.5,30.04,SSW,200,0.0,0.0,53,0.00,,,0.00,0,Wunderground v.1.15,2013-05-08 04:03:00,
2013-05-08 00:07:00,58.6,42.0,30.04,SSW,200,0.0,0.0,54,0.00,,,0.00,0,Wunderground v.1.15,2013-05-08 04:07:00,
2013-05-08 00:08:00,58.6,42.0,30.04,SSW,200,0.0,0.0,54,0.00,,,0.00,0,Wunderground v.1.15,2013-05-08 04:08:00,
2013-05-08 00:13:00,58.4,41.8,30.04,SSW,200,0.0,1.0,54,0.00,,,0.00,0,Wunderground v.1.15,2013-05-08 04:13:00,
2013-05-08 00:19:00,58.4,41.8,30.05,SSW,200,0.0,1.0,54,0.00,,,0.00,0,Wunderground v.1.15,2013-05-08 04:19:00,
2013-05-08 00:24:00,58.6,41.5,30.05,SSW,200,0.0,0.0,53,0.00,,,0.00,0,Wunderground v.1.15,2013-05-08 04:24:00,
2013-05-08 00:31:00,58.7,42.1,30.06,SSW,209,0.0,0.0,54,0.00,,,0.00,0,Wunderground v.1.15,2013-05-08 04:31:00,
2013-05-08 00:36:00,58.9,42.3,30.06,SSW,209,0.0,1.0,54,0.00,,,0.00,0,Wunderground v.1.15,2013-05-08 04:36:00,
2013-05-08 00:41:00,59.0,42.4,30.06,SSW,209,0.0,0.0,54,0.00,,,0.00,0,Wunderground v.1.15,2013-05-08 04:41:00,
2013-05-08 00:47:00,59.3,43.1,30.06,SSW,209,0.0,0.0,55,0.00,,,0.00,0,Wunderground v.1.15,2013-05-08 04:47:00,
2013-05-08 00:52:00,59.8,44.1,30.06,SSW,209,0.0,0.0,56,0.00,,,0.00,0,Wunderground v.1.15,2013-05-08 04:52:00,
2013-05-08 00:58:00,60.2,44.9,30.06,SSW,213,0.0,4.0,57,0.00,,,0.00,0,Wunderground v.1.15,2013-05-08 04:58:00,
2013-05-08 01:04:00,61.0,46.1,30.06,SSW,213,0.0,0.0,58,0.00,,,0.00,0,Wunderground v.1.15,2013-05-08 05:04:00,
2013-05-08 01:11:00,61.6,46.7,30.06,SSW,213,0.0,0.0,58,0.00,,,0.00,0,Wunderground v.1.15,2013-05-08 05:11:00,
2013-05-08 01:16:00,62.0,46.6,30.06,SSW,213,0.0,0.0,57,0.00,,,0.00,0,Wunderground v.1.15,2013-05-08 05:16:00,
2013-05-08 01:22:00,62.3,47.3,30.06,SSW,213,0.0,0.0,58,0.00,,,0.00,0,Wunderground v.1.15,2013-05-08 05:22:00,
2013-05-08 01:28:00,62.4,47.9,30.06,SSW,205,0.0,0.0,59,0.00,,,0.00,0,Wunderground v.1.15,2013-05-08 05:28:00,
2013-05-08 01:33:00,62.9,48.3,30.06,South,179,0.0,0.0,59,0.00,,,0.00,0,Wunderground v.1.15,2013-05-08 05:33:00,
2013-05-08 01:39:00,62.9,47.9,30.06,South,179,0.0,0.0,58,0.00,,,0.00,0,Wunderground v.1.15,2013-05-08 05:39:00,
2013-05-08 01:46:00,62.9,47.9,30.06,South,179,0.0,1.0,58,0.00,,,0.00,0,Wunderground v.1.15,2013-05-08 05:46:00,
2013-05-08 01:51:00,62.9,47.9,30.06,South,179,0.0,0.0,58,0.00,,,0.00,0,Wunderground v.1.15,2013-05-08 05:51:00,
2013-05-08 01:56:00,62.7,48.6,30.06,South,179,0.0,2.0,60,0.00,,,0.00,0,Wunderground v.1.15,2013-05-08 05:56:00,
2013-05-08 02:02:00,62.3,48.2,30.06,South,179,0.0,0.0,60,0.00,,,0.00,0,Wunderground v.1.15,2013-05-08 06:02:00,
2013-05-08 02:08:00,61.8,47.8,30.06,South,179,0.0,1.0,60,0.00,,,0.00,0,Wunderground v.1.15,2013-05-08 06:08:00,
2013-05-08 02:13:00,61.3,46.8,30.06,South,179,0.0,2.0,59,0.00,,,0.00,0,Wunderground v.1.15,2013-05-08 06:13:00,
2013-05-08 02:19:00,60.7,46.3,30.06,South,184,0.0,3.0,59,0.00,,,0.00,0,Wunderground v.1.15,2013-05-08 06:19:00,
2013-05-08 02:26:00,59.9,46.0,30.06,South,186,1.0,2.0,60,0.00,,,0.00,0,Wunderground v.1.15,2013-05-08 06:26:00,
2013-05-08 02:31:00,59.5,45.6,30.06,SSW,197,1.0,1.0,60,0.00,,,0.00,0,Wunderground v.1.15,2013-05-08 06:31:00,
2013-05-08 02:37:00,59.0,45.1,30.06,SSW,197,1.0,3.0,60,0.00,,,0.00,0,Wunderground v.1.15,2013-05-08 06:37:00,
2013-05-08 02:42:00,58.7,45.3,30.06,SSW,197,1.0,3.0,61,0.00,,,0.00,0,Wunderground v.1.15,2013-05-08 06:42:00,
2013-05-08 02:48:00,58.4,45.4,30.06,SSW,197,1.0,3.0,62,0.00,,,0.00,0,Wunderground v.1.15,2013-05-08 06:48:00,
2013-05-08 02:54:00,58.3,45.8,30.06,SSW,197,1.0,2.0,63,0.00,,,0.00,0,Wunderground v.1.15,2013-05-08 06:54:00,
2013-05-08 02:59:00,58.1,46.0,30.06,SSW,197,1.0,2.0,64,0.00,,,0.00,0,Wunderground v.1.15,2013-05-08 06:59:00,
2013-05-08 03:06:00,58.0,45.9,30.06,SSW,197,0.0,2.0,64,0.00,,,0.00,0,Wunderground v.1.15,2013-05-08 07:06:00,
2013-05-08 03:11:00,57.8,46.1,30.06,SSW,197,0.0,0.0,65,0.00,,,0.00,0,Wunderground v.1.15,2013-05-08 07:11:00,
2013-05-08 03:17:00,57.8,46.9,30.06,SSW,197,0.0,2.0,67,0.00,,,0.00,0,Wunderground v.1.15,2013-05-08 07:17:00,
2013-05-08 03:22:00,57.6,46.7,30.06,SSW,197,0.0,0.0,67,0.00,,,0.00,0,Wunderground v.1.15,2013-05-08 07:22:00,
2013-05-08 03:28:00,57.6,46.7,30.06,SSW,197,0.0,0.0,67,0.00,,,0.00,0,Wunderground v.1.15,2013-05-08 07:28:00,
2013-05-08 03:34:00,57.5,47.0,30.06,SSW,197,0.0,2.0,68,0.00,,,0.00,0,Wunderground v.1.15,2013-05-08 07:34:00,
2013-05-08 03:39:00,57.5,47.4,30.06,SSW,197,0.0,2.0,69,0.00,,,0.00,0,Wunderground v.1.15,2013-05-08 07:39:00,
2013-05-08 03:46:00,57.8,48.1,30.06,SSW,197,0.0,1.0,70,0.00,,,0.00,0,Wunderground v.1.15,2013-05-08 07:46:00,
2013-05-08 03:51:00,57.8,48.1,30.06,SSW,197,0.0,0.0,70,0.00,,,0.00,0,Wunderground v.1.15,2013-05-08 07:51:00,
2013-05-08 03:57:00,58.0,48.6,30.06,SSW,197,0.0,2.0,71,0.00,,,0.00,0,Wunderground v.1.15,2013-05-08 07:57:00,
2013-05-08 04:02:00,58.1,48.4,30.06,SSW,197,0.0,0.0,70,0.00,,,0.00,0,Wunderground v.1.15,2013-05-08 08:02:00,
2013-05-08 04:08:00,58.1,48.7,30.06,SSW,197,0.0,2.0,71,0.00,,,0.00,0,Wunderground v.1.15,2013-05-08 08:08:00,
2013-05-08 04:13:00,58.1,48.4,30.06,SSW,197,1.0,1.0,70,0.00,,,0.00,0,Wunderground v.1.15,2013-05-08 08:13:00,
2013-05-08 04:18:00,58.1,48.4,30.06,SSW,197,1.0,1.0,70,0.00,,,0.00,0,Wunderground v.1.15,2013-05-08 08:18:00,
2013-05-08 04:24:00,58.0,48.3,30.06,SSW,197,0.0,1.0,70,0.00,,,0.00,0,Wunderground v.1.15,2013-05-08 08:24:00,
2013-05-08 04:29:00,57.8,48.1,30.06,SSW,197,0.0,1.0,70,0.00,,,0.00,0,Wunderground v.1.15,2013-05-08 08:29:00,
2013-05-08 04:36:00,57.6,47.9,30.06,SSW,197,0.0,3.0,70,0.00,,,0.00,0,Wunderground v.1.15,2013-05-08 08:36:00,
2013-05-08 04:41:00,57.5,47.8,30.06,SSW,197,0.0,0.0,70,0.00,,,0.00,0,Wunderground v.1.15,2013-05-08 08:41:00,
2013-05-08 04:47:00,57.5,48.2,30.06,SSW,197,0.0,2.0,71,0.00,,,0.00,0,Wunderground v.1.15,2013-05-08 08:47:00,
2013-05-08 04:52:00,57.5,48.2,30.06,SSW,197,0.0,0.0,71,0.00,,,0.00,0,Wunderground v.1.15,2013-05-08 08:52:00,
2013-05-08 04:58:00,57.3,48.3,30.06,SSW,197,0.0,1.0,72,0.00,,,0.00,0,Wunderground v.1.15,2013-05-08 08:58:00,
2013-05-08 05:03:00,57.2,48.3,30.06,SSW,197,0.0,2.0,72,0.00,,,0.00,0,Wunderground v.1.15,2013-05-08 09:03:00,
2013-05-08 05:09:00,57.2,48.6,30.06,SSW,197,0.0,2.0,73,0.00,,,0.00,0,Wunderground v.1.15,2013-05-08 09:09:00,
2013-05-08 05:16:00,57.0,48.4,30.06,SSW,197,0.0,0.0,73,0.00,,,0.00,0,Wunderground v.1.15,2013-05-08 09:16:00,
2013-05-08 05:21:00,56.9,48.3,30.06,SSW,197,0.0,0.0,73,0.00,,,0.00,0,Wunderground v.1.15,2013-05-08 09:21:00,
2013-05-08 05:26:00,56.7,48.1,30.06,SSW,197,0.0,0.0,73,0.00,,,0.00,0,Wunderground v.1.15,2013-05-08 09:26:00,
2013-05-08 05:32:00,56.6,48.4,30.06,SSW,197,0.0,0.0,74,0.00,,,0.00,0,Wunderground v.1.15,2013-05-08 09:32:00,
2013-05-08 05:38:00,56.5,48.3,30.06,SSW,197,0.0,0.0,74,0.00,,,0.00,0,Wunderground v.1.15,2013-05-08 09:38:00,
2013-05-08 05:43:00,56.3,48.1,30.06,SSW,197,0.0,0.0,74,0.00,,,0.00,5,Wunderground v.1.15,2013-05-08 09:43:00,
2013-05-08 05:49:00,56.2,48.0,30.07,SSW,197,0.0,0.0,74,0.00,,,0.00,7,Wunderground v.1.15,2013-05-08 09:49:00,
2013-05-08 05:56:00,56.0,48.2,30.07,SSW,197,0.0,0.0,75,0.00,,,0.00,9,Wunderground v.1.15,2013-05-08 09:56:00,
2013-05-08 06:01:00,56.0,48.5,30.08,SSW,197,0.0,0.0,76,0.00,,,0.00,11,Wunderground v.1.15,2013-05-08 10:01:00,
2013-05-08 06:06:00,55.9,48.4,30.08,SSW,197,0.0,0.0,76,0.00,,,0.00,11,Wunderground v.1.15,2013-05-08 10:06:00,
2013-05-08 06:11:00,55.9,48.4,30.08,SSW,197,0.0,0.0,76,0.00,,,0.00,12,Wunderground v.1.15,2013-05-08 10:11:00,
2013-05-08 06:16:00,55.9,48.8,30.08,SSW,197,0.0,0.0,77,0.00,,,0.00,14,Wunderground v.1.15,2013-05-08 10:16:00,
2013-05-08 06:22:00,56.0,48.9,30.08,SSW,197,0.0,0.0,77,0.00,,,0.00,19,Wunderground v.1.15,2013-05-08 10:22:00,
2013-05-08 06:27:00,56.0,48.9,30.08,SSW,197,0.0,0.0,77,0.00,,,0.00,21,Wunderground v.1.15,2013-05-08 10:27:00,
2013-05-08 06:33:00,56.2,49.1,30.09,SSW,197,0.0,0.0,77,0.00,,,0.00,25,Wunderground v.1.15,2013-05-08 10:33:00,
2013-05-08 06:39:00,56.2,49.1,30.09,SSW,197,0.0,1.0,77,0.00,,,0.00,26,Wunderground v.1.15,2013-05-08 10:39:00,
2013-05-08 06:44:00,56.2,49.1,30.09,SSW,197,0.0,0.0,77,0.00,,,0.00,28,Wunderground v.1.15,2013-05-08 10:44:00,
2013-05-08 06:51:00,56.2,49.1,30.09,SSW,197,0.0,0.0,77,0.00,,,0.00,33,Wunderground v.1.15,2013-05-08 10:51:00,
2013-05-08 06:56:00,56.0,49.2,30.09,SSW,197,0.0,0.0,78,0.00,,,0.00,32,Wunderground v.1.15,2013-05-08 10:56:00,
2013-05-08 07:02:00,55.9,49.5,30.09,SSW,197,0.0,0.0,79,0.00,,,0.00,33,Wunderground v.1.15,2013-05-08 11:02:00,
2013-05-08 07:07:00,55.9,49.5,30.09,SSW,197,0.0,0.0,79,0.00,,,0.00,35,Wunderground v.1.15,2013-05-08 11:07:00,
2013-05-08 07:13:00,56.0,49.9,30.09,SSW,197,0.0,0.0,80,0.00,,,0.00,37,Wunderground v.1.15,2013-05-08 11:13:00,
2013-05-08 07:19:00,56.2,50.1,30.09,SSW,197,0.0,0.0,80,0.00,,,0.00,39,Wunderground v.1.15,2013-05-08 11:19:00,
2013-05-08 07:24:00,56.5,50.4,30.09,SSW,197,0.0,0.0,80,0.00,,,0.00,42,Wunderground v.1.15,2013-05-08 11:24:00,
2013-05-08 07:31:00,57.2,51.1,30.09,SSW,197,0.0,0.0,80,0.00,,,0.00,44,Wunderground v.1.15,2013-05-08 11:31:00,
2013-05-08 07:36:00,57.5,51.4,30.09,SSW,197,0.0,0.0,80,0.00,,,0.00,47,Wunderground v.1.15,2013-05-08 11:36:00,
2013-05-08 07:41:00,58.1,52.0,30.09,SSW,197,0.0,0.0,80,0.00,,,0.00,51,Wunderground v.1.15,2013-05-08 11:41:00,
2013-05-08 07:47:00,58.9,52.4,30.09,SSW,197,0.0,0.0,79,0.00,,,0.00,60,Wunderground v.1.15,2013-05-08 11:47:00,
2013-05-08 07:52:00,59.3,52.8,30.09,SSW,197,0.0,0.0,79,0.00,,,0.00,65,Wunderground v.1.15,2013-05-08 11:52:00,
2013-05-08 07:58:00,59.9,53.0,30.09,SSW,197,0.0,0.0,78,0.00,,,0.00,79,Wunderground v.1.15,2013-05-08 11:58:00,
2013-05-08 08:04:00,60.9,54.0,30.09,SSW,197,0.0,0.0,78,0.00,,,0.00,84,Wunderground v.1.15,2013-05-08 12:04:00,
2013-05-08 08:11:00,61.6,54.0,30.09,SSW,197,0.0,0.0,76,0.00,,,0.00,102,Wunderground v.1.15,2013-05-08 12:11:00,
2013-05-08 08:16:00,62.1,54.4,30.09,SSW,197,0.0,0.0,76,0.00,,,0.00,116,Wunderground v.1.15,2013-05-08 12:16:00,
2013-05-08 08:22:00,62.7,53.9,30.09,SSW,197,0.0,0.0,73,0.00,,,0.00,130,Wunderground v.1.15,2013-05-08 12:22:00,
2013-05-08 08:28:00,63.2,54.0,30.09,SSW,197,0.0,0.0,72,0.00,,,0.00,190,Wunderground v.1.15,2013-05-08 12:28:00,
2013-05-08 08:33:00,63.7,54.1,30.09,SSW,197,0.0,0.0,71,0.00,,,0.00,290,Wunderground v.1.15,2013-05-08 12:33:00,
2013-05-08 08:39:00,64.7,54.3,30.09,SSW,197,0.0,0.0,69,0.00,,,0.00,432,Wunderground v.1.15,2013-05-08 12:39:00,
2013-05-08 08:46:00,66.1,54.4,30.10,SSW,198,0.0,0.0,66,0.00,,,0.00,524,Wunderground v.1.15,2013-05-08 12:46:00,
2013-05-08 08:51:00,67.3,54.7,30.10,SSW,198,0.0,0.0,64,0.00,,,0.00,578,Wunderground v.1.15,2013-05-08 12:51:00,
2013-05-08 08:56:00,68.6,55.9,30.10,South,174,0.0,0.0,64,0.00,,,0.00,545,Wunderground v.1.15,2013-05-08 12:56:00,
2013-05-08 09:02:00,69.9,54.9,30.09,South,174,0.0,0.0,59,0.00,,,0.00,504,Wunderground v.1.15,2013-05-08 13:02:00,
2013-05-08 09:07:00,70.4,54.4,30.09,South,174,0.0,0.0,57,0.00,,,0.00,575,Wunderground v.1.15,2013-05-08 13:07:00,
2013-05-08 09:13:00,71.1,54.6,30.09,South,174,0.0,0.0,56,0.00,,,0.00,515,Wunderground v.1.15,2013-05-08 13:13:00,
2013-05-08 09:19:00,72.1,54.5,30.09,SSW,192,0.0,0.0,54,0.00,,,0.00,571,Wunderground v.1.15,2013-05-08 13:19:00,
2013-05-08 09:24:00,72.8,54.1,30.09,SSW,192,0.0,0.0,52,0.00,,,0.00,649,Wunderground v.1.15,2013-05-08 13:24:00,
2013-05-08 09:31:00,73.0,53.8,30.09,SSW,192,0.0,0.0,51,0.00,,,0.00,448,Wunderground v.1.15,2013-05-08 13:31:00,
2013-05-08 09:36:00,72.5,53.3,30.09,SSW,192,0.0,0.0,51,0.00,,,0.00,390,Wunderground v.1.15,2013-05-08 13:36:00,
2013-05-08 09:42:00,72.0,52.9,30.09,SSW,192,0.0,0.0,51,0.00,,,0.00,429,Wunderground v.1.15,2013-05-08 13:42:00,
2013-05-08 09:48:00,72.3,53.7,30.09,SSW,192,0.0,0.0,52,0.00,,,0.00,515,Wunderground v.1.15,2013-05-08 13:48:00,
2013-05-08 09:54:00,72.7,54.6,30.09,South,184,0.0,0.0,53,0.00,,,0.00,638,Wunderground v.1.15,2013-05-08 13:54:00,
2013-05-08 09:59:00,73.9,54.6,30.09,South,184,0.0,0.0,51,0.00,,,0.00,726,Wunderground v.1.15,2013-05-08 13:59:00,
2013-05-08 10:06:00,74.4,53.4,30.09,South,171,0.0,0.0,48,0.00,,,0.00,318,Wunderground v.1.15,2013-05-08 14:06:00,
2013-05-08 10:11:00,74.7,55.4,30.09,South,171,0.0,0.0,51,0.00,,,0.00,830,Wunderground v.1.15,2013-05-08 14:11:00,
2013-05-08 10:17:00,74.9,55.0,30.08,SE,131,0.0,2.0,50,0.00,,,0.00,744,Wunderground v.1.15,2013-05-08 14:17:00,
2013-05-08 10:22:00,75.8,54.7,30.08,SE,131,0.0,0.0,48,0.00,,,0.00,817,Wunderground v.1.15,2013-05-08 14:22:00,
2013-05-08 10:28:00,76.1,52.6,30.08,SE,131,0.0,0.0,44,0.00,,,0.00,898,Wunderground v.1.15,2013-05-08 14:28:00,
2013-05-08 10:34:00,76.3,53.4,30.08,SE,131,0.0,0.0,45,0.00,,,0.00,675,Wunderground v.1.15,2013-05-08 14:34:00,
2013-05-08 10:41:00,76.3,53.4,30.08,SE,131,0.0,0.0,45,0.00,,,0.00,935,Wunderground v.1.15,2013-05-08 14:41:00,
2013-05-08 10:46:00,76.7,53.1,30.08,SE,146,0.0,0.0,44,0.00,,,0.00,230,Wunderground v.1.15,2013-05-08 14:46:00,
2013-05-08 10:51:00,76.5,53.0,30.08,SE,146,0.0,0.0,44,0.00,,,0.00,230,Wunderground v.1.15,2013-05-08 14:51:00,
2013-05-08 10:57:00,76.1,54.4,30.08,SE,146,0.0,0.0,47,0.00,,,0.00,475,Wunderground v.1.15,2013-05-08 14:57:00,
2013-05-08 11:02:00,76.5,54.2,30.08,SE,146,0.0,0.0,46,0.00,,,0.00,684,Wunderground v.1.15,2013-05-08 15:02:00,
2013-05-08 11:07:00,77.0,54.6,30.08,SE,146,0.0,0.0,46,0.00,,,0.00,954,Wunderground v.1.15,2013-05-08 15:07:00,
2013-05-08 11:13:00,77.7,52.1,30.08,WSW,249,0.0,0.0,41,0.00,,,0.00,939,Wunderground v.1.15,2013-05-08 15:13:00,
2013-05-08 11:18:00,78.1,53.8,30.06,SW,220,0.0,0.0,43,0.00,,,0.00,888,Wunderground v.1.15,2013-05-08 15:18:00,
2013-05-08 11:24:00,79.2,53.5,30.06,SE,129,0.0,2.0,41,0.00,,,0.00,925,Wunderground v.1.15,2013-05-08 15:24:00,
2013-05-08 11:31:00,80.1,54.3,30.06,ESE,120,0.0,2.0,41,0.00,,,0.00,926,Wunderground v.1.15,2013-05-08 15:31:00,
2013-05-08 11:36:00,80.9,52.9,30.06,SE,140,0.0,2.0,38,0.00,,,0.00,998,Wunderground v.1.15,2013-05-08 15:36:00,
2013-05-08 11:42:00,82.0,51.6,30.06,SE,140,0.0,0.0,35,0.00,,,0.00,1079,Wunderground v.1.15,2013-05-08 15:42:00,
2013-05-08 11:47:00,81.1,51.6,30.06,SE,139,0.0,0.0,36,0.00,,,0.00,1074,Wunderground v.1.15,2013-05-08 15:47:00,
2013-05-08 11:52:00,80.7,53.4,30.06,SE,139,0.0,0.0,39,0.00,,,0.00,1076,Wunderground v.1.15,2013-05-08 15:52:00,
2013-05-08 11:57:00,81.6,51.3,30.06,SE,139,0.0,0.0,35,0.00,,,0.00,1027,Wunderground v.1.15,2013-05-08 15:57:00,
2013-05-08 12:03:00,83.0,53.3,30.05,SSE,158,0.0,0.0,36,0.00,,,0.00,1151,Wunderground v.1.15,2013-05-08 16:03:00,
2013-05-08 12:09:00,83.4,53.6,30.05,SSE,158,0.0,0.0,36,0.00,,,0.00,1129,Wunderground v.1.15,2013-05-08 16:09:00,
2013-05-08 12:14:00,84.1,53.5,30.05,East,93,0.0,0.0,35,0.00,,,0.00,1074,Wunderground v.1.15,2013-05-08 16:14:00,
2013-05-08 12:21:00,85.1,51.9,30.04,South,183,0.0,0.0,32,0.00,,,0.00,315,Wunderground v.1.15,2013-05-08 16:21:00,
2013-05-08 12:26:00,85.1,53.6,30.04,South,183,0.0,0.0,34,0.00,,,0.00,738,Wunderground v.1.15,2013-05-08 16:26:00,
2013-05-08 12:33:00,84.5,52.2,30.04,ESE,121,0.0,0.0,33,0.00,,,0.00,738,Wunderground v.1.15,2013-05-08 16:33:00,
2013-05-08 12:39:00,84.3,53.7,30.04,ESE,121,0.0,0.0,35,0.00,,,0.00,1079,Wunderground v.1.15,2013-05-08 16:39:00,
2013-05-08 12:44:00,83.8,53.2,30.04,SE,141,0.0,0.0,35,0.00,,,0.00,738,Wunderground v.1.15,2013-05-08 16:44:00,
2013-05-08 12:51:00,84.1,53.5,30.03,SE,143,0.0,0.0,35,0.00,,,0.00,223,Wunderground v.1.15,2013-05-08 16:51:00,
2013-05-08 12:56:00,84.1,51.1,30.03,SE,143,0.0,0.0,32,0.00,,,0.00,248,Wunderground v.1.15,2013-05-08 16:56:00,
2013-05-08 13:02:00,82.6,52.2,30.02,SSE,160,0.0,0.0,35,0.00,,,0.00,156,Wunderground v.1.15,2013-05-08 17:02:00,
2013-05-08 17:06:00,65.3,57.9,30.00,WNW,301,1.0,1.0,77,0.00,,,0.00,54,Wunderground v.1.15,2013-05-08 21:06:00,
2013-05-08 17:12:00,65.5,57.7,30.00,West,272,2.0,3.0,76,0.00,,,0.00,46,Wunderground v.1.15,2013-05-08 21:12:00,
2013-05-08 17:17:00,65.6,57.8,30.00,WSW,248,1.0,3.0,76,0.00,,,0.00,42,Wunderground v.1.15,2013-05-08 21:17:00,
2013-05-08 17:22:00,65.6,58.2,30.00,South,176,1.0,4.0,77,0.00,,,0.00,37,Wunderground v.1.15,2013-05-08 21:22:00,
2013-05-08 17:28:00,65.6,59.3,30.00,South,176,0.0,4.0,80,0.00,,,0.01,33,Wunderground v.1.15,2013-05-08 21:28:00,
2013-05-08 17:33:00,65.3,59.3,30.00,NNW,327,0.0,3.0,81,0.00,,,0.01,33,Wunderground v.1.15,2013-05-08 21:33:00,
2013-05-08 17:39:00,65.0,59.4,30.00,SE,128,1.0,1.0,82,0.00,,,0.01,39,Wunderground v.1.15,2013-05-08 21:39:00,
2013-05-08 17:44:00,64.8,59.5,30.00,SE,128,0.0,1.0,83,0.00,,,0.01,42,Wunderground v.1.15,2013-05-08 21:44:00,
2013-05-08 17:50:00,64.7,59.4,30.01,WSW,243,0.0,2.0,83,0.00,,,0.01,42,Wunderground v.1.15,2013-05-08 21:50:00,
2013-05-08 17:55:00,64.7,59.4,30.01,WSW,243,0.0,2.0,83,0.00,,,0.01,46,Wunderground v.1.15,2013-05-08 21:55:00,
2013-05-08 18:01:00,64.7,59.4,30.00,WSW,243,0.0,0.0,83,0.00,,,0.01,56,Wunderground v.1.15,2013-05-08 22:01:00,
2013-05-08 18:06:00,64.8,59.5,30.00,WSW,243,0.0,0.0,83,0.00,,,0.01,65,Wunderground v.1.15,2013-05-08 22:06:00,
2013-05-08 18:11:00,65.0,59.7,30.00,WSW,243,0.0,0.0,83,0.00,,,0.01,60,Wunderground v.1.15,2013-05-08 22:11:00,
2013-05-08 18:17:00,65.0,59.4,30.00,West,259,0.0,0.0,82,0.00,,,0.01,47,Wunderground v.1.15,2013-05-08 22:17:00,
2013-05-08 18:22:00,65.0,59.4,30.00,WSW,241,0.0,0.0,82,0.00,,,0.01,42,Wunderground v.1.15,2013-05-08 22:22:00,
2013-05-08 18:27:00,65.2,59.6,30.00,SSW,198,0.0,0.0,82,0.00,,,0.01,28,Wunderground v.1.15,2013-05-08 22:27:00,
2013-05-08 18:32:00,65.0,59.4,30.00,SSW,198,0.0,0.0,82,0.00,,,0.01,25,Wunderground v.1.15,2013-05-08 22:32:00,
2013-05-08 18:38:00,65.0,59.0,30.00,SSW,198,0.0,0.0,81,0.00,,,0.01,23,Wunderground v.1.15,2013-05-08 22:38:00,
2013-05-08 18:44:00,65.0,58.7,30.00,SSW,198,0.0,1.0,80,0.00,,,0.01,26,Wunderground v.1.15,2013-05-08 22:44:00,
2013-05-08 18:49:00,65.0,58.3,29.99,SSW,198,0.0,2.0,79,0.00,,,0.01,19,Wunderground v.1.15,2013-05-08 22:49:00,
2013-05-08 18:54:00,65.2,58.2,29.99,SSW,198,0.0,3.0,78,0.00,,,0.01,16,Wunderground v.1.15,2013-05-08 22:54:00,
2013-05-08 19:00:00,65.2,58.5,29.99,SSW,198,0.0,0.0,79,0.00,,,0.01,12,Wunderground v.1.15,2013-05-08 23:00:00,
2013-05-08 19:06:00,65.2,58.9,29.99,SE,127,0.0,0.0,80,0.00,,,0.01,11,Wunderground v.1.15,2013-05-08 23:06:00,
2013-05-08 19:11:00,65.0,59.0,29.99,SE,127,0.0,1.0,81,0.19,,,0.03,9,Wunderground v.1.15,2013-05-08 23:11:00,
2013-05-08 19:16:00,64.7,59.4,29.99,SE,127,0.0,1.0,83,0.10,,,0.03,7,Wunderground v.1.15,2013-05-08 23:16:00,
2013-05-08 19:22:00,64.3,59.4,29.99,SE,127,0.0,0.0,84,0.27,,,0.05,5,Wunderground v.1.15,2013-05-08 23:22:00,
2013-05-08 19:27:00,64.0,59.7,29.99,SE,127,0.0,0.0,86,0.27,,,0.07,0,Wunderground v.1.15,2013-05-08 23:27:00,
2013-05-08 19:32:00,63.7,59.4,30.00,SSW,210,0.0,0.0,86,0.35,,,0.09,0,Wunderground v.1.15,2013-05-08 23:32:00,
2013-05-08 19:38:00,63.5,59.6,30.00,SSW,210,0.0,0.0,87,0.08,,,0.09,0,Wunderground v.1.15,2013-05-08 23:38:00,
2013-05-08 19:43:00,63.4,59.5,30.00,SSW,210,0.0,0.0,87,0.07,,,0.10,0,Wunderground v.1.15,2013-05-08 23:43:00,
2013-05-08 19:49:00,63.2,59.6,30.00,SSW,210,0.0,0.0,88,0.06,,,0.10,0,Wunderground v.1.15,2013-05-08 23:49:00,
2013-05-08 19:55:00,63.1,59.8,30.00,SSW,210,0.0,1.0,89,0.04,,,0.10,0,Wunderground v.1.15,2013-05-08 23:55:00,
2013-05-08 20:00:00,63.1,59.8,30.00,SSW,210,0.0,0.0,89,0.00,,,0.10,0,Wunderground v.1.15,2013-05-09 00:00:00,
2013-05-08 20:06:00,63.2,59.9,30.00,SSW,210,0.0,0.0,89,0.00,,,0.10,0,Wunderground v.1.15,2013-05-09 00:06:00,
2013-05-08 20:11:00,63.4,60.1,30.00,SSW,210,0.0,0.0,89,0.00,,,0.10,0,Wunderground v.1.15,2013-05-09 00:11:00,
2013-05-08 20:16:00,63.5,60.2,30.01,SSW,210,0.0,2.0,89,0.00,,,0.11,0,Wunderground v.1.15,2013-05-09 00:16:00,
2013-05-08 20:22:00,63.4,60.1,30.01,SSW,210,1.0,2.0,89,0.00,,,0.11,0,Wunderground v.1.15,2013-05-09 00:22:00,
2013-05-08 20:28:00,63.1,59.5,30.01,West,266,1.0,3.0,88,0.00,,,0.11,0,Wunderground v.1.15,2013-05-09 00:28:00,
2013-05-08 20:33:00,62.6,59.0,30.00,SSW,210,1.0,1.0,88,0.04,,,0.12,0,Wunderground v.1.15,2013-05-09 00:33:00,
2013-05-08 20:38:00,62.4,58.8,30.00,West,267,1.0,2.0,88,0.09,,,0.13,0,Wunderground v.1.15,2013-05-09 00:38:00,
2013-05-08 20:44:00,62.1,58.5,30.00,West,267,1.0,2.0,88,0.08,,,0.14,0,Wunderground v.1.15,2013-05-09 00:44:00,
2013-05-08 20:49:00,62.1,58.5,30.00,West,268,1.0,3.0,88,0.19,,,0.15,0,Wunderground v.1.15,2013-05-09 00:49:00,
2013-05-08 20:55:00,61.8,58.5,30.00,West,277,2.0,4.0,89,0.12,,,0.16,0,Wunderground v.1.15,2013-05-09 00:55:00,
2013-05-08 21:01:00,61.6,58.3,29.99,WNW,293,2.0,2.0,89,0.06,,,0.16,0,Wunderground v.1.15,2013-05-09 01:01:00,
2013-05-08 21:07:00,61.6,58.3,29.99,WNW,283,3.0,5.0,89,0.04,,,0.16,0,Wunderground v.1.15,2013-05-09 01:07:00,
2013-05-08 21:12:00,61.6,58.3,29.99,WNW,296,3.0,4.0,89,0.00,,,0.16,0,Wunderground v.1.15,2013-05-09 01:12:00,
2013-05-08 21:17:00,61.6,58.3,29.99,WNW,290,2.0,4.0,89,0.00,,,0.16,0,Wunderground v.1.15,2013-05-09 01:17:00,
2013-05-08 21:23:00,61.6,58.3,29.99,SSE,167,1.0,2.0,89,0.00,,,0.17,0,Wunderground v.1.15,2013-05-09 01:23:00,
2013-05-08 21:29:00,61.6,58.3,29.99,SSE,167,0.0,2.0,89,0.00,,,0.17,0,Wunderground v.1.15,2013-05-09 01:29:00,
2013-05-08 21:34:00,61.6,58.3,29.99,SSE,156,0.0,0.0,89,0.04,,,0.18,0,Wunderground v.1.15,2013-05-09 01:34:00,
2013-05-08 21:40:00,61.5,58.2,29.99,WSW,250,1.0,2.0,89,0.04,,,0.18,0,Wunderground v.1.15,2013-05-09 01:40:00,
2013-05-08 21:45:00,61.5,58.2,29.99,West,264,1.0,5.0,89,0.04,,,0.18,0,Wunderground v.1.15,2013-05-09 01:45:00,
2013-05-08 21:50:00,61.3,58.0,29.99,West,264,1.0,1.0,89,0.04,,,0.19,0,Wunderground v.1.15,2013-05-09 01:50:00,
2013-05-08 21:56:00,61.3,58.0,29.99,West,264,1.0,2.0,89,0.04,,,0.19,0,Wunderground v.1.15,2013-05-09 01:56:00,
2013-05-08 22:01:00,61.3,58.0,29.99,SSE,154,0.0,0.0,89,0.04,,,0.19,0,Wunderground v.1.15,2013-05-09 02:01:00,
2013-05-08 22:07:00,61.3,58.0,29.99,SW,224,0.0,1.0,89,0.14,,,0.21,0,Wunderground v.1.15,2013-05-09 02:07:00,
2013-05-08 22:13:00,61.5,58.2,29.99,SSE,159,0.0,2.0,89,0.09,,,0.21,0,Wunderground v.1.15,2013-05-09 02:13:00,
2013-05-08 22:18:00,61.3,58.0,29.98,SSE,159,0.0,2.0,89,0.05,,,0.21,0,Wunderground v.1.15,2013-05-09 02:18:00,
2013-05-08 22:23:00,61.3,58.3,29.98,SSE,160,0.0,0.0,90,0.04,,,0.21,0,Wunderground v.1.15,2013-05-09 02:23:00,
2013-05-08 22:29:00,61.2,58.2,29.98,SSE,155,0.0,0.0,90,0.00,,,0.21,0,Wunderground v.1.15,2013-05-09 02:29:00,
2013-05-08 22:34:00,61.2,58.2,29.98,SSE,155,0.0,0.0,90,0.00,,,0.21,0,Wunderground v.1.15,2013-05-09 02:34:00,
2013-05-08 22:40:00,61.2,58.2,29.98,SSE,155,0.0,0.0,90,0.00,,,0.22,0,Wunderground v.1.15,2013-05-09 02:40:00,
2013-05-08 22:45:00,61.0,58.0,29.99,SSE,155,0.0,0.0,90,0.00,,,0.22,0,Wunderground v.1.15,2013-05-09 02:45:00,
2013-05-08 22:51:00,61.0,58.0,29.99,SSE,155,0.0,0.0,90,0.00,,,0.22,0,Wunderground v.1.15,2013-05-09 02:51:00,
2013-05-08 22:56:00,61.0,58.4,29.99,SSE,155,0.0,0.0,91,0.04,,,0.23,0,Wunderground v.1.15,2013-05-09 02:56:00,
2013-05-08 23:01:00,60.9,58.3,29.98,SSE,155,0.0,0.0,91,0.04,,,0.23,0,Wunderground v.1.15,2013-05-09 03:01:00,
2013-05-08 23:07:00,60.7,58.1,29.98,SSE,155,0.0,0.0,91,0.05,,,0.24,0,Wunderground v.1.15,2013-05-09 03:07:00,
2013-05-08 23:13:00,60.9,58.3,29.98,SSE,155,0.0,0.0,91,0.05,,,0.24,0,Wunderground v.1.15,2013-05-09 03:13:00,
2013-05-08 23:18:00,60.7,58.1,29.98,SSE,155,0.0,0.0,91,0.05,,,0.24,0,Wunderground v.1.15,2013-05-09 03:18:00,
2013-05-08 23:23:00,60.7,58.4,29.98,SSE,155,0.0,0.0,92,0.00,,,0.24,0,Wunderground v.1.15,2013-05-09 03:23:00,
2013-05-08 23:29:00,60.7,58.4,29.98,SSE,155,0.0,0.0,92,0.00,,,0.24,0,Wunderground v.1.15,2013-05-09 03:29:00,
2013-05-08 23:34:00,60.7,58.4,29.97,SSE,155,0.0,0.0,92,0.00,,,0.24,0,Wunderground v.1.15,2013-05-09 03:34:00,
2013-05-08 23:39:00,60.7,58.4,29.97,SSE,155,0.0,0.0,92,0.00,,,0.24,0,Wunderground v.1.15,2013-05-09 03:39:00,
2013-05-08 23:45:00,60.7,58.4,29.97,SSE,155,0.0,0.0,92,0.00,,,0.24,0,Wunderground v.1.15,2013-05-09 03:45:00,
2013-05-08 23:51:00,60.5,58.2,29.97,SSE,155,0.0,0.0,92,0.00,,,0.24,0,Wunderground v.1.15,2013-05-09 03:51:00,
2013-05-08 23:56:00,60.5,58.2,29.97,SSE,155,0.0,0.0,92,0.00,,,0.24,0,Wunderground v.1.15,2013-05-09 03:56:00,